RH
5 5 5 5 5 5 5 5 5 4 4 4 3 3 3 3 3 3 3 3 3 3 3 4 5 7 11 14 15 15 16 18 18 18 22 25 27 29 30 30 29 29 30 28 26 23 17 14 22 45 62 65 64 56 50 48 43 35 21 9 8 9 9 10 10 11 11 11 11 11 12 12 11 11 14 19 25 33 48 50 44 50 60 69 74 74 73 66 59 54 49 39 28 21 17 16 14
5 5 5 5 5 5 5 5 5 5 4 4 3 3 3 3 3 3 3 3 3 3 3 4 5 7 12 16 17 18 21 23 23 23 28 32 33 35 36 34 32 32 32 30 28 24 18 15 19 35 51 60 65 60 54 48 40 32 17 8 8 9 9 10 10 10 11 11 11 12 12 13 12 12 15 22 30 38 51 49 40 43 52 63 72 76 78 70 62 57 54 45 32 23 18 16 14
4 4 4 4 4 4 5 5 5 5 4 4 4 3 3 3 3 3 3 2 3 3 3 4 5 8 11 16 16 18 27 31 31 32 35 37 37 38 37 35 35 34 34 33 32 27 19 17 18 26 38 49 58 57 50 43 38 29 14 8 9 9 10 10 9 10 10 10 11 12 12 13 12 13 16 25 36 43 55 53 42 43 50 60 67 73 79 75 68 61 56 48 36 25 19 17 15
3 3 4 4 4 4 4 4 5 5 5 4 4 4 3 3 3 3 3 3 3 3 4 3 6 8 9 14 15 18 24 27 34 39 41 41 39 40 38 37 37 36 36 35 34 26 19 20 20 24 35 45 53 50 44 42 37 24 11 10 11 11 11 10 10 9 9 10 11 11 12 12 13 15 18 28 44 51 61 65 59 59 65 72 73 73 78 77 74 67 59 50 41 31 22 19 16
2 3 3 3 3 4 4 4 4 5 5 4 4 4 3 4 3 3 3 3 3 3 4 3 6 7 10 16 16 20 21 22 31 38 41 42 41 41 38 38 38 38 38 37 31 21 19 25 24 28 39 47 51 47 45 44 33 18 10 11 12 11 11 10 10 9 9 10 12 12 13 14 14 16 20 31 52 61 67 79 82 81 82 86 85 81 79 77 74 69 62 55 47 37 27 22 19
2 2 2 2 3 3 4 4 4 5 5 5 4 4 4 4 4 4 3 3 3 3 3 3 5 8 16 20 19 21 21 24 31 35 40 42 42 40 38 38 38 38 38 35 25 17 27 35 34 38 45 52 54 50 48 39 24 13 11 12 12 11 11 11 10 11 12 14 15 15 14 16 16 18 22 34 59 74 76 88 96 96 94 93 91 88 86 82 79 74 67 60 52 43 32 26 22
1 1 2 2 2 3 3 3 5 5 5 5 5 4 4 5 5 5 3 4 3 3 3 4 4 9 20 22 24 26 23 27 31 35 41 43 41 38 38 38 37 37 34 28 20 26 43 48 47 48 53 60 59 54 44 29 16 11 12 12 11 11 10 10 12 15 17 18 19 19 19 19 20 20 24 37 64 86 91 97 99 98 97 96 93 90 87 85 86 83 77 69 59 50 38 29 25
1 1 1 1 2 2 3 4 5 6 6 5 5 5 5 6 8 7 5 5 4 4 4 5 4 9 17 18 24 27 26 30 33 38 41 40 37 34 34 34 32 28 25 21 23 43 58 57 58 59 63 66 60 50 34 20 13 11 11 11 11 10 10 12 16 21 22 25 26 25 25 26 26 25 29 42 67 88 95 93 86 83 91 99 97 91 85 86 90 90 86 77 66 56 42 29 24
1 1 1 1 1 2 3 4 6 6 6 6 5 5 6 8 9 9 8 7 5 5 6 6 5 8 12 15 21 22 24 31 34 36 35 33 30 28 28 26 22 16 17 18 27 50 61 63 66 68 70 66 53 38 24 16 12 10 10 10 11 11 13 18 23 26 28 33 35 33 35 37 36 36 39 50 69 84 90 87 78 77 90 99 98 90 87 90 94 93 89 82 72 58 43 31 24
1 1 1 1 1 2 3 5 6 6 6 6 6 5 6 8 11 12 10 8 6 5 7 8 7 9 13 15 18 18 21 28 31 31 27 24 23 23 23 21 14 9 13 17 30 53 65 69 73 74 69 55 40 28 19 13 10 9 10 10 11 14 22 35 38 35 36 42 45 44 48 49 47 49 51 60 75 83 87 88 85 87 93 97 96 92 91 93 94 94 92 87 75 55 43 36 27
1 1 1 1 1 2 4 6 6 6 6 6 6 5 6 7 11 13 10 8 6 7 8 8 10 11 13 15 17 18 21 25 28 26 20 18 20 20 21 18 12 11 15 24 44 61 69 73 75 70 57 43 31 22 15 10 9 9 10 10 13 23 35 48 51 46 47 51 52 55 59 59 59 61 64 73 85 91 93 94 93 94 96 98 98 96 94 95 96 92 93 92 74 51 44 39 33
1 1 1 1 2 3 5 7 7 7 6 6 6 6 6 8 12 14 11 9 8 10 11 10 11 12 14 16 16 16 18 22 24 22 18 18 19 20 20 15 13 20 31 44 59 66 71 73 68 58 46 37 26 17 12 9 10 10 10 9 17 37 48 54 58 54 55 56 59 64 65 65 67 73 80 87 93 97 99 99 98 98 99 101 100 96 94 98 99 93 95 92 71 54 50 47 44
1 2 1 1 2 3 6 7 7 7 7 7 6 7 7 8 14 16 11 9 9 12 13 12 13 14 15 15 13 13 17 21 21 20 18 17 18 18 17 12 15 32 51 59 65 70 72 68 59 52 43 31 19 13 10 9 9 8 8 9 22 44 55 60 61 59 60 63 68 70 69 68 71 80 88 89 92 96 99 100 99 95 94 98 98 94 95 99 99 94 97 92 74 62 56 53 50
2 2 1 2 2 4 7 8 8 7 7 8 7 10 12 13 18 16 11 12 14 16 16 14 17 17 14 12 10 11 17 20 18 15 13 13 14 14 11 11 20 41 60 69 75 77 70 63 58 49 36 23 15 11 9 9 9 9 16 28 44 58 64 67 64 64 67 71 73 72 70 69 72 83 89 87 92 99 99 98 99 96 94 99 99 95 98 100 98 96 99 93 78 65 57 52 46
2 2 2 2 3 6 9 9 9 7 8 11 11 13 16 18 23 21 15 15 16 17 18 18 21 18 13 11 10 11 15 16 14 10 9 8 8 11 8 11 30 51 68 82 85 78 68 64 56 40 27 18 14 11 9 9 11 22 42 59 68 71 72 70 66 67 71 74 75 72 69 69 73 83 90 90 92 97 98 99 99 98 97 99 97 97 100 100 99 99 97 87 74 63 56 51 44
2 2 1 2 5 8 10 9 8 8 8 10 14 16 17 16 21 28 23 18 19 19 19 22 24 19 13 11 11 11 12 13 12 9 7 6 6 8 7 15 42 60 75 90 88 77 71 64 50 36 26 19 15 12 11 17 29 47 64 72 73 74 72 69 68 70 72 75 75 71 69 71 75 83 91 96 96 94 94 95 94 93 94 95 94 98 100 99 100 101 90 76 67 63 58 53 47
2 1 2 3 6 10 11 10 10 11 9 8 13 17 21 19 17 25 28 25 26 25 22 24 25 19 12 10 10 9 11 12 13 12 8 7 7 8 16 37 61 74 86 95 88 79 71 59 49 44 39 33 28 22 21 31 49 62 69 72 75 75 73 70 71 73 74 74 74 71 72 73 75 79 84 89 95 93 88 87 88 90 92 91 92 93 97 98 100 101 86 70 66 67 64 57 51
2 1 3 4 8 11 12 14 13 16 16 12 14 17 23 25 20 21 29 32 30 30 28 27 24 17 11 9 8 9 11 12 13 14 9 11 15 16 32 59 74 85 96 95 88 80 64 51 49 50 50 46 41 36 37 42 52 61 70 77 79 77 75 76 75 75 75 73 72 70 72 73 71 71 72 79 87 89 85 82 81 85 88 89 88 86 92 98 101 100 86 72 73 73 69 63 56
2 2 3 5 11 11 14 22 20 22 28 25 22 21 20 22 24 22 28 36 34 32 29 26 21 15 11 9 10 10 10 11 12 10 10 23 29 25 30 54 80 93 95 92 89 77 58 52 55 58 55 49 42 38 40 43 47 54 64 73 76 74 73 75 74 72 70 69 71 72 72 70 67 67 70 77 83 85 84 81 75 77 86 93 92 88 91 96 98 100 89 79 82 82 78 71 65
3 3 3 7 13 11 17 27 25 28 37 35 30 28 25 20 21 23 28 37 38 34 27 22 19 14 12 11 11 12 11 9 8 10 19 33 39 34 27 44 80 90 86 90 88 73 61 63 67 65 56 45 40 35 35 40 44 48 55 60 61 61 62 65 64 65 66 67 70 69 67 65 64 65 71 78 81 81 79 76 74 78 90 96 94 94 98 98 96 99 92 86 89 91 88 82 79
4 4 6 11 14 12 17 23 26 34 40 38 34 32 31 22 18 22 28 34 36 34 25 18 16 14 13 13 13 12 8 6 17 34 40 42 47 50 41 46 70 76 84 97 90 75 67 66 63 57 49 42 39 37 41 45 45 47 51 53 51 49 50 55 59 64 68 67 65 61 59 59 60 64 71 78 78 75 74 74 75 83 94 92 89 96 101 96 93 93 91 90 95 98 95 91 91
5 5 9 13 14 14 16 18 23 34 39 38 37 35 31 24 19 20 27 33 36 35 26 18 14 14 14 15 15 11 12 24 54 77 69 61 70 73 61 64 80 85 94 102 92 79 68 57 48 42 39 38 38 40 45 46 43 43 45 47 46 46 49 56 61 65 65 61 58 56 54 55 57 63 70 73 74 76 80 82 80 80 85 86 89 95 93 85 82 82 85 90 97 100 100 98 99
6 8 12 14 15 15 15 17 23 30 37 38 38 36 31 27 22 19 25 33 36 36 30 22 16 16 16 15 15 9 11 28 60 84 81 78 90 90 73 73 92 99 100 100 93 82 66 49 37 32 31 31 35 42 45 41 35 35 37 39 39 42 47 52 54 54 53 51 50 51 51 51 53 57 65 71 78 82 81 80 79 79 83 89 95 93 85 77 74 77 83 90 95 97 99 100 100
7 11 15 15 16 17 15 20 28 33 37 39 37 36 34 30 27 23 24 30 34 35 31 26 22 17 14 15 15 8 7 24 48 63 67 74 91 98 86 76 86 97 100 99 94 81 62 45 34 31 29 31 37 43 42 32 25 25 27 30 31 34 37 40 42 43 43 43 45 48 49 52 59 68 77 83 84 80 74 72 76 83 88 91 90 83 78 74 72 75 82 90 94 94 95 97 95
9 14 18 17 16 17 16 21 32 38 41 43 39 37 36 32 28 24 23 24 25 29 29 28 25 18 16 18 15 9 11 27 46 56 55 60 73 83 90 89 85 89 95 94 90 79 64 53 46 41 36 34 38 38 32 23 17 18 20 23 27 32 35 38 40 40 40 41 45 49 54 64 77 87 89 87 80 72 69 71 74 79 79 76 72 71 72 71 69 71 79 89 93 90 87 88 87
13 16 18 18 17 17 17 19 30 42 44 45 42 39 38 33 29 26 22 19 19 25 27 26 23 19 20 22 17 14 16 20 30 48 56 55 55 58 78 96 92 90 96 95 90 82 76 75 71 62 48 34 29 27 21 16 15 20 25 29 33 37 40 42 41 40 41 45 50 56 70 84 90 89 82 76 71 66 66 68 66 64 60 57 57 59 63 64 65 67 74 83 87 86 84 83 82
16 17 18 18 18 18 17 18 30 45 48 47 44 42 40 33 31 32 25 20 20 22 22 22 21 21 24 23 21 19 21 18 18 41 64 66 60 62 81 99 100 96 95 88 81 80 82 86 85 82 71 44 25 23 21 16 15 21 30 35 39 41 43 45 44 44 46 50 57 70 86 93 89 80 72 64 61 63 66 65 60 55 50 49 50 51 53 57 61 64 67 72 76 80 83 83 83
19 19 19 19 19 18 18 18 25 41 51 51 47 43 40 33 29 32 27 20 21 20 22 25 24 27 26 22 21 23 25 19 21 56 86 83 72 74 87 96 94 87 83 80 77 76 75 78 83 90 85 58 36 34 29 20 16 18 25 32 38 41 46 50 50 50 52 55 65 82 88 82 73 65 59 55 55 58 60 59 57 52 48 46 45 44 45 51 57 59 60 64 70 75 78 81 79
22 21 20 20 21 19 19 18 20 30 42 52 52 42 36 32 26 28 25 18 21 23 25 25 25 28 25 20 21 24 25 18 36 81 101 93 86 88 94 92 86 84 85 82 76 68 67 80 92 90 80 69 60 50 34 21 17 19 25 31 38 44 51 54 55 55 54 57 68 79 78 69 61 54 48 48 50 50 47 46 47 45 42 40 38 38 41 47 51 53 54 57 62 69 75 76 72
25 24 22 22 21 20 20 20 19 22 28 41 52 44 33 30 27 28 26 22 25 26 24 22 23 26 23 20 18 19 22 24 54 94 102 98 99 99 99 93 88 88 83 72 66 66 73 88 100 96 87 83 73 51 33 22 16 19 27 34 40 47 54 57 59 59 57 59 64 67 66 62 56 46 41 42 43 40 35 34 36 37 36 34 34 36 37 42 47 50 52 52 56 63 71 74 72
27 26 25 24 23 21 22 21 19 20 21 27 44 47 35 29 29 31 30 29 27 22 19 20 19 21 19 17 15 16 17 25 62 97 101 99 99 99 100 95 88 82 73 70 76 81 80 72 68 72 77 83 74 47 29 21 17 25 36 42 46 50 57 62 63 60 57 56 58 59 58 56 50 42 38 37 34 30 29 29 32 32 30 31 32 32 34 39 44 49 53 55 57 65 71 74 76
29 27 26 26 24 23 23 22 20 21 21 20 32 44 40 33 31 33 34 32 27 19 17 17 15 18 17 14 14 14 16 34 71 95 91 84 88 91 91 85 77 70 69 78 85 81 69 49 38 44 56 74 78 55 32 23 22 31 45 52 54 59 64 65 65 59 54 54 57 59 57 52 47 41 37 33 30 27 26 26 27 27 27 29 29 30 35 39 42 48 57 63 63 66 72 75 78
33 29 27 26 24 24 23 23 22 21 22 21 23 34 42 43 41 40 37 32 29 24 19 16 16 18 17 15 14 15 31 55 68 66 58 56 63 71 78 77 69 67 73 81 80 70 58 43 42 53 63 80 84 63 46 43 43 44 53 60 60 67 70 67 64 57 53 56 60 60 56 52 48 44 39 34 29 26 23 23 24 23 24 25 28 34 37 35 32 35 49 65 67 65 70 75 77
37 31 28 27 25 24 23 23 23 21 21 22 21 24 32 41 47 48 42 37 35 28 19 16 17 18 17 17 15 17 33 48 43 36 36 39 40 44 55 57 55 67 85 90 79 64 53 43 48 60 73 91 88 66 53 51 56 59 63 65 60 66 72 68 62 55 54 58 58 55 50 48 46 42 38 32 27 22 19 20 19 19 20 22 29 36 36 31 25 25 37 55 64 66 71 73 73
42 38 32 30 27 25 25 24 24 23 21 21 21 20 22 29 36 41 41 38 34 24 18 18 18 18 18 18 16 18 27 32 31 33 34 34 33 31 35 44 59 82 98 96 80 67 54 39 42 52 70 96 86 61 49 39 49 65 70 69 60 60 68 65 60 55 56 58 56 53 49 45 41 37 35 31 26 19 15 14 14 15 16 19 23 29 31 27 24 26 33 44 58 69 73 73 72
45 45 40 34 30 27 26 25 24 23 21 21 21 20 19 20 23 27 30 29 24 20 18 18 18 18 18 17 17 21 27 29 30 33 34 34 35 30 29 42 66 87 94 90 81 72 54 37 43 51 70 99 87 60 48 35 45 66 71 71 61 57 62 61 58 54 54 57 57 54 49 43 38 33 31 29 25 20 16 14 13 13 14 15 16 19 22 21 22 27 31 35 49 63 67 66 67
43 46 45 38 34 31 27 25 24 23 22 21 20 20 19 18 18 20 21 21 19 18 18 17 18 18 17 17 19 24 29 28 29 34 36 36 38 39 39 42 53 70 81 82 77 67 50 41 46 50 73 101 87 61 48 36 47 65 69 70 65 60 59 59 57 54 55 58 58 54 48 40 35 31 28 26 24 22 21 19 18 18 17 17 15 15 16 17 18 23 28 30 34 44 51 53 57
41 44 45 41 38 36 32 27 24 24 22 22 21 20 20 18 18 19 19 19 18 17 17 17 17 17 19 20 22 25 24 22 26 34 37 35 40 53 57 51 49 55 60 62 61 55 46 43 43 45 73 99 83 59 50 41 50 70 75 71 67 62 57 58 59 59 60 61 60 55 47 39 34 31 28 27 26 25 25 24 24 24 24 23 21 17 15 14 13 16 23 25 24 29 36 39 45
39 41 42 40 38 38 37 31 28 27 24 22 23 21 19 19 18 18 18 17 17 17 16 17 18 21 27 30 28 25 22 23 31 38 38 36 45 59 60 55 53 49 47 53 61 61 52 44 46 55 77 96 82 61 52 46 55 75 79 73 71 66 58 56 60 64 66 65 62 55 45 38 34 32 32 31 31 30 29 28 28 28 28 28 27 21 16 13 12 13 18 23 23 24 27 28 36
37 40 40 39 38 38 38 33 32 35 31 25 24 22 18 18 17 17 17 18 18 18 18 19 20 28 40 43 39 34 34 39 42 44 44 47 57 65 62 66 68 57 54 66 74 78 78 67 59 65 85 98 82 62 56 54 64 79 77 72 75 72 64 58 59 65 69 67 60 51 43 38 34 33 33 33 33 33 31 31 29 28 27 27 26 23 18 15 14 13 16 23 25 23 23 23 29
38 38 38 39 39 38 37 34 33 35 37 33 28 24 19 18 20 23 24 25 25 23 23 23 25 37 46 45 40 38 42 48 48 48 51 54 58 59 57 61 64 57 59 69 69 69 85 94 85 80 92 97 79 66 66 65 74 88 83 74 73 75 71 66 65 69 71 67 58 50 43 37 34 33 34 34 34 33 32 32 30 28 26 24 22 20 18 16 15 13 13 17 18 16 17 17 20
41 39 39 40 40 39 36 35 31 28 38 46 36 26 22 20 26 34 35 34 35 35 31 28 32 42 43 43 45 44 45 51 52 50 52 58 67 70 65 64 69 73 74 72 67 63 70 83 91 91 89 85 77 71 70 72 82 93 93 86 79 77 75 70 71 74 72 67 58 50 43 38 36 36 35 35 33 32 32 32 31 28 26 23 21 19 17 16 15 14 13 13 13 11 12 12 14
42 39 40 40 38 36 33 32 28 27 45 61 51 36 29 27 32 37 38 39 42 44 42 37 37 41 41 46 55 54 50 52 52 54 61 69 75 71 65 66 72 80 77 67 64 63 58 64 84 95 87 80 77 67 65 78 90 97 100 95 83 76 75 73 75 78 77 70 61 52 45 41 39 37 36 35 33 32 32 31 30 28 27 25 25 23 21 19 16 15 15 14 13 13 13 12 11
42 38 37 35 30 28 26 25 23 31 53 70 69 55 40 35 38 37 38 40 42 47 47 43 41 43 43 46 54 57 53 50 52 61 68 67 64 58 61 67 67 69 68 64 64 60 58 73 93 99 90 82 75 67 76 91 97 101 98 90 85 82 82 82 84 88 86 76 64 55 49 45 43 40 38 35 32 32 32 33 32 29 27 26 25 26 26 26 24 21 20 17 16 15 16 18 18
39 37 33 29 25 22 23 21 21 40 62 73 78 66 47 43 42 37 38 40 40 43 45 46 46 47 49 49 52 55 52 48 51 57 58 59 64 62 62 66 66 67 65 63 65 61 66 88 100 96 90 82 70 72 90 100 99 101 93 84 91 95 92 92 96 100 96 82 69 61 56 52 48 44 39 36 34 33 33 35 35 31 28 26 24 24 24 25 25 25 24 21 19 17 18 21 24
38 38 31 27 25 21 23 19 21 50 71 74 80 73 55 48 44 39 39 40 40 42 45 50 49 48 51 52 51 50 49 47 50 55 59 68 76 72 68 73 74 74 70 59 54 55 62 80 89 90 91 84 71 71 87 99 100 99 91 88 96 99 96 98 102 103 99 87 75 67 63 58 53 46 40 35 34 32 32 35 36 32 29 27 25 23 20 18 18 19 20 21 21 20 19 20 23
38 43 37 31 26 22 25 20 27 59 70 67 79 80 66 54 46 42 41 41 44 48 52 54 52 50 49 50 52 53 49 45 47 56 65 73 76 70 72 82 80 73 68 57 56 63 67 71 75 80 88 91 81 73 83 99 99 92 90 93 98 99 99 101 102 102 100 92 82 75 68 60 55 47 38 35 35 32 31 32 32 29 26 26 25 26 23 18 17 17 18 19 20 21 22 23 25
36 46 44 38 33 29 27 22 34 60 61 61 80 85 74 63 52 47 44 43 47 53 57 57 55 51 46 45 48 47 45 44 45 51 60 63 66 67 71 80 81 71 63 61 70 79 76 77 78 75 83 95 91 79 82 93 89 83 91 98 99 100 102 101 99 98 97 94 90 82 69 59 54 46 34 32 36 34 29 28 28 27 26 26 26 26 25 22 21 21 21 21 22 23 25 27 28
36 46 44 40 40 35 27 23 38 59 60 64 79 84 80 71 59 54 52 50 52 57 61 59 56 53 49 47 44 45 47 43 37 37 45 52 61 70 75 78 78 68 58 62 76 81 77 78 79 76 80 89 87 79 80 86 82 79 89 99 100 101 102 99 94 89 84 84 85 78 66 58 52 43 32 30 37 37 32 30 30 29 28 27 26 26 25 24 24 23 23 23 23 24 26 28 31
36 42 39 37 39 32 23 20 30 53 70 73 74 77 80 74 63 58 59 62 63 64 66 64 60 57 55 53 51 50 45 38 38 38 42 54 66 73 75 76 74 64 57 63 74 82 83 80 76 76 78 78 79 82 84 85 81 78 86 98 101 100 101 98 93 88 79 72 71 67 61 58 52 40 30 31 39 40 36 34 32 29 27 26 25 24 24 24 23 22 21 22 24 25 27 31 34
42 42 36 33 33 27 26 26 28 44 67 75 74 73 71 67 63 59 60 64 65 64 65 63 59 55 54 54 53 48 42 52 70 71 67 72 75 74 71 69 64 55 53 61 69 74 76 76 74 71 70 73 82 88 87 83 79 77 82 94 100 100 100 97 92 92 86 74 67 63 60 58 52 40 30 30 37 40 38 34 30 28 26 25 24 23 23 22 21 20 21 25 28 28 28 32 36
58 47 36 32 32 29 33 40 42 47 58 69 74 73 65 58 56 54 53 57 61 64 62 57 52 48 43 43 51 59 69 87 93 85 83 83 77 73 67 58 50 45 50 58 62 64 64 66 66 59 58 68 80 84 80 76 74 75 80 87 95 100 100 95 89 87 81 66 59 61 63 61 53 40 32 31 34 35 34 31 28 28 27 26 26 26 25 23 21 21 24 29 30 28 28 30 34
74 56 41 44 48 47 52 57 56 57 64 70 72 73 66 56 50 44 44 54 64 69 67 60 56 54 48 44 47 57 74 90 88 81 86 84 74 68 57 48 44 46 53 59 57 57 58 59 60 61 63 66 71 76 76 74 70 69 75 81 86 91 93 90 85 76 67 58 54 56 60 62 58 45 34 32 33 32 31 30 29 30 28 24 25 30 33 32 30 29 29 28 28 29 31 32 34
75 67 61 63 61 53 56 66 64 62 70 72 69 72 69 63 53 36 36 53 63 66 65 61 61 68 75 71 56 51 61 75 82 86 90 85 72 59 51 49 48 50 58 60 54 53 57 59 62 69 76 72 66 67 74 79 77 68 68 72 75 79 80 79 75 67 62 64 63 58 58 61 62 54 41 33 34 34 33 32 31 32 31 25 20 23 29 30 29 27 24 22 25 30 33 33 34
55 71 79 77 72 62 55 59 61 60 64 58 54 62 63 59 49 30 30 45 49 53 54 51 57 68 81 82 65 61 71 79 86 90 91 87 70 54 52 54 54 58 64 61 55 54 54 59 62 62 72 79 73 74 86 95 88 71 60 59 60 62 65 68 70 69 72 75 70 63 64 67 68 64 52 40 36 37 39 38 35 35 36 33 24 18 18 21 21 19 19 22 25 28 29 29 30
44 61 75 72 71 74 66 57 55 58 61 47 34 40 41 40 36 26 31 41 39 40 39 40 53 61 65 66 60 66 78 82 85 86 84 82 71 59 58 61 59 61 66 65 63 59 52 56 59 55 68 82 76 73 81 79 66 53 47 50 55 59 63 68 73 77 82 83 76 70 73 77 78 76 67 55 46 43 44 44 41 39 38 38 32 23 17 16 16 18 21 24 25 25 24 25 26
54 55 66 66 64 70 68 59 52 50 57 52 37 28 25 29 34 34 44 52 42 35 28 26 43 56 54 49 48 58 69 71 75 78 76 74 70 65 67 70 66 60 64 68 66 61 55 54 54 55 69 78 66 56 56 52 46 43 43 47 55 63 66 69 73 76 80 82 78 76 78 82 87 87 81 72 63 57 53 51 49 46 42 41 39 31 22 17 14 14 16 18 20 21 22 23 23
65 56 56 61 69 77 76 69 60 50 51 54 49 44 36 33 40 49 61 62 46 43 46 42 50 64 61 47 43 52 60 66 76 82 79 73 70 71 75 78 75 64 63 68 68 67 66 60 57 62 73 74 62 52 48 45 46 45 43 45 53 65 71 72 73 78 85 88 84 82 84 88 93 96 92 83 73 68 65 61 58 55 50 47 44 37 28 20 15 12 12 12 13 14 16 18 20
Wind_Speed
34 33 32 32 31 31 30 28 28 27 26 25 27 29 28 27 28 28 29 31 32 32 30 30 31 31 30 30 30 29 29 27 26 26 26 26 26 25 26 27 27 28 29 29 29 30 28 25 24 23 22 20 19 20 20 21 22 23 24 24 24 23 22 21 20 19 18 18 18 19 19 20 20 19 17 16 14 14 13 12 11 11 12 12 12 12 10 8 9 9 9 9 8 7 7 7 7
35 34 33 33 32 31 30 29 29 26 25 26 28 29 28 27 28 29 30 31 31 31 31 31 31 31 31 30 30 29 27 25 25 26 26 26 27 28 29 30 30 30 31 31 31 32 29 27 25 25 25 24 22 22 22 23 24 24 25 25 24 23 22 21 20 20 19 18 19 19 20 20 20 19 17 15 14 13 12 11 10 11 12 12 13 13 10 9 10 10 10 9 8 8 8 7 8
36 36 35 34 32 31 30 29 28 26 25 27 29 29 28 28 29 30 31 31 30 30 31 31 32 31 32 31 31 29 25 24 25 26 27 28 28 30 31 32 33 33 33 33 34 34 31 28 27 27 27 26 24 24 24 25 25 25 25 25 24 23 22 21 20 20 19 19 19 19 20 21 20 19 17 15 13 12 11 10 9 10 11 11 12 12 11 10 11 11 11 10 9 8 8 8 8
38 37 36 35 34 32 31 29 27 25 26 28 29 29 28 28 28 30 31 30 29 30 31 32 32 32 33 31 30 28 26 26 25 26 28 30 32 33 33 34 35 35 36 36 36 35 33 30 28 28 27 27 26 25 26 25 25 26 26 25 24 23 23 21 20 20 19 19 19 20 20 20 20 18 16 14 13 12 11 9 8 9 10 10 11 12 11 11 12 12 12 10 9 9 9 8 8
38 38 37 36 35 33 32 30 26 24 27 28 29 29 28 28 28 29 30 29 30 30 31 32 32 33 32 30 29 27 27 28 28 28 30 32 34 35 35 36 37 37 38 38 37 34 32 31 28 27 27 27 26 26 26 25 26 26 26 25 24 23 22 21 20 20 19 19 19 20 20 20 20 18 15 14 12 12 10 9 9 9 10 10 11 11 10 11 12 13 12 11 11 10 10 9 9
37 37 36 36 35 34 33 31 25 24 27 27 28 28 27 27 28 29 29 29 30 30 31 31 31 32 30 29 29 28 29 30 30 30 31 33 35 35 36 37 37 38 38 38 37 33 32 29 27 26 26 26 26 26 25 26 26 26 25 25 24 23 21 20 19 19 19 19 19 20 20 20 19 17 15 13 12 11 9 9 9 10 10 11 12 11 10 11 12 13 13 12 11 11 11 10 10
36 36 36 36 35 34 33 30 25 25 26 27 28 28 27 27 28 29 29 29 30 30 30 31 33 33 30 30 29 29 30 31 31 32 32 33 34 34 35 36 37 38 39 39 35 31 29 27 26 25 25 25 26 26 26 27 27 26 26 25 24 22 20 19 18 18 19 19 20 20 20 20 18 17 15 13 11 9 8 8 10 10 11 13 13 12 11 11 12 13 13 13 12 12 12 11 10
34 35 35 34 34 33 31 28 25 26 26 27 29 28 28 28 29 29 29 29 29 30 30 31 34 33 32 32 29 29 30 31 32 33 33 33 33 34 34 35 37 39 40 37 32 28 26 25 24 24 25 26 26 26 27 27 27 27 26 25 23 21 19 18 18 18 19 19 20 20 19 19 18 16 14 13 10 9 8 9 11 11 12 13 14 13 12 13 13 14 14 14 13 13 12 12 10
33 33 33 33 32 31 29 27 25 26 27 27 29 28 28 29 30 30 30 30 29 30 31 32 33 34 34 33 31 32 32 32 33 33 32 31 31 32 32 33 35 38 37 34 30 27 26 24 24 24 25 26 26 27 28 27 27 27 25 23 21 19 17 17 18 19 19 19 19 18 18 18 17 16 14 13 11 10 10 10 11 11 11 12 14 14 14 14 15 16 15 14 14 14 13 11 10
33 32 31 31 30 29 27 26 27 28 28 28 28 28 29 30 31 31 31 30 30 30 31 32 33 34 34 34 34 34 34 33 34 33 30 29 29 30 31 32 33 34 33 31 29 27 25 24 24 24 25 26 27 28 28 28 27 25 23 20 18 17 17 17 18 18 19 19 18 17 17 17 17 16 15 13 12 11 11 11 10 10 10 11 13 14 15 15 16 17 17 15 14 14 13 12 10
33 32 31 30 29 27 25 26 28 28 27 27 28 29 31 31 32 33 32 31 31 31 32 33 34 35 35 35 35 35 34 33 33 31 28 28 29 30 31 31 30 28 28 28 27 26 25 24 24 24 25 26 27 28 28 27 25 23 20 18 17 16 16 17 17 18 18 18 18 18 18 17 17 16 15 14 13 11 10 10 10 11 12 13 14 16 18 18 17 18 18 15 13 13 13 12 10
32 31 31 30 29 27 25 26 27 27 26 26 28 31 33 32 33 34 33 32 32 33 34 35 36 36 36 35 35 34 33 32 31 29 28 29 31 31 32 31 27 24 24 26 26 25 25 24 24 25 26 26 27 27 27 25 23 21 19 17 16 16 16 17 17 18 18 19 18 18 17 17 17 16 15 14 12 11 10 11 12 13 16 17 16 17 21 22 20 20 18 15 13 13 14 13 11
31 31 31 30 29 27 25 25 25 25 25 27 30 33 34 33 35 35 34 33 34 35 35 35 35 35 35 34 34 33 32 31 30 29 30 33 33 32 32 29 25 23 24 25 25 25 24 24 24 25 25 26 27 26 25 23 21 19 18 17 16 16 16 17 18 18 19 19 18 17 16 16 17 16 15 13 11 11 12 12 14 15 16 17 17 18 23 23 23 22 19 15 14 14 14 14 12
31 31 31 30 29 27 25 24 25 24 25 28 31 34 34 34 35 35 34 34 35 35 35 34 33 33 34 34 34 32 31 30 29 29 31 34 33 32 30 28 24 23 23 24 23 23 23 23 23 24 25 26 26 25 23 22 20 19 17 17 15 15 16 18 19 19 19 18 17 16 16 16 17 17 15 14 12 14 15 14 15 16 17 18 19 20 22 24 25 23 17 14 15 14 14 14 14
31 31 31 30 28 25 23 24 25 24 25 29 32 34 35 35 35 35 35 35 35 34 33 32 32 33 34 33 33 32 30 29 28 28 31 32 31 31 29 27 24 23 22 22 23 23 23 22 22 23 24 24 24 23 22 21 19 18 16 15 15 16 17 18 19 18 19 18 17 15 16 17 17 17 17 15 14 16 17 16 17 18 19 19 19 19 21 23 25 20 15 15 15 14 15 15 15
31 31 30 29 26 22 21 23 25 25 27 30 34 36 36 36 36 35 35 36 35 34 33 32 32 34 34 33 32 31 29 28 27 28 29 30 30 29 28 27 24 23 22 22 22 22 22 22 22 23 23 23 22 22 21 20 19 17 16 16 17 17 18 18 18 18 18 16 15 15 16 17 16 17 17 16 15 16 17 17 18 18 19 18 18 19 19 21 22 18 16 16 14 14 16 16 16
31 30 29 27 24 20 19 22 24 26 28 31 36 39 38 38 38 36 34 35 34 33 34 33 33 34 35 33 31 29 28 27 27 28 29 30 30 28 26 26 24 23 21 21 22 22 22 22 23 23 23 22 22 21 21 20 19 18 17 18 18 17 17 17 16 14 14 14 15 16 17 17 15 16 17 17 18 18 17 18 18 18 19 19 19 18 16 18 21 17 16 16 15 16 16 17 16
30 30 28 25 22 18 17 22 25 27 29 33 38 40 41 41 39 37 34 33 33 33 33 34 34 34 35 33 29 28 27 27 29 29 30 30 30 27 24 23 22 21 20 21 22 22 22 22 23 24 23 22 22 22 21 20 20 19 19 19 18 17 17 17 16 15 16 17 18 18 17 16 15 16 16 17 19 19 19 19 19 19 19 19 19 17 15 17 19 17 17 17 18 18 17 17 17
30 29 28 24 20 18 20 26 28 28 32 36 39 40 42 43 41 38 34 30 31 33 34 35 35 34 36 32 26 27 27 28 29 31 33 30 29 27 24 22 21 21 21 22 23 22 23 23 24 24 23 23 23 22 22 21 21 21 20 20 20 20 20 19 19 19 19 19 18 18 17 17 16 16 17 17 19 19 20 21 21 20 18 17 16 15 15 16 17 18 19 18 19 20 19 19 17
29 30 28 21 19 22 26 31 31 32 36 39 40 40 42 43 42 40 34 31 31 33 35 36 35 35 37 30 23 25 27 28 30 34 32 26 27 29 26 24 22 22 22 23 24 23 24 24 24 24 23 23 23 23 23 23 21 20 20 20 20 21 21 21 21 21 19 18 17 18 19 19 18 18 18 18 19 19 20 22 22 19 17 17 15 14 15 17 18 19 20 19 20 21 21 20 19
30 30 26 19 22 26 30 33 34 36 39 40 40 41 42 44 44 41 35 32 31 32 35 36 35 36 35 27 22 24 26 27 30 34 28 24 31 32 27 24 22 22 23 24 25 24 24 24 24 25 24 24 24 24 23 22 20 19 19 19 20 21 21 21 21 20 19 18 19 20 21 20 19 18 18 17 17 18 19 20 20 18 17 17 15 16 18 18 18 19 20 20 20 21 22 22 21
30 29 24 21 24 27 30 35 38 40 41 40 40 41 43 44 45 42 35 31 30 31 34 36 36 36 29 23 23 25 25 26 28 28 22 22 30 31 24 21 23 24 26 26 24 23 24 24 24 24 25 25 25 24 23 22 20 19 18 19 20 20 20 20 20 19 20 21 21 21 21 19 18 17 17 16 17 16 15 15 16 17 17 16 15 17 18 17 17 18 19 19 19 20 22 23 22
30 28 24 22 24 27 30 36 40 42 43 41 41 41 43 44 44 43 37 31 29 30 32 34 37 34 24 21 24 24 26 29 28 25 22 20 21 25 22 19 25 27 26 23 22 23 23 23 23 24 25 25 25 24 23 22 20 18 18 18 19 19 20 20 20 20 21 21 21 20 19 18 17 17 17 16 14 12 12 12 12 13 14 13 14 16 16 16 16 17 17 17 18 19 21 22 21
29 27 24 23 25 28 30 37 42 43 43 43 42 43 43 43 43 43 38 33 30 31 32 33 36 32 23 22 22 22 26 28 27 25 25 23 20 23 23 20 23 25 25 22 22 23 22 22 23 24 25 25 25 24 23 21 19 18 18 18 18 18 19 19 19 19 19 19 18 18 17 16 15 15 14 13 12 11 12 12 11 10 10 12 14 15 16 16 15 15 15 15 16 17 19 20 20
28 25 24 25 28 29 33 39 44 45 45 43 43 43 42 42 43 43 40 37 34 33 33 32 34 30 24 24 22 22 25 26 26 25 26 26 26 27 26 24 24 26 26 23 21 22 22 23 23 24 26 26 25 24 22 20 18 17 17 18 17 17 16 16 17 17 16 16 15 15 14 13 11 10 10 11 11 11 11 11 10 9 10 11 13 14 15 15 15 14 14 14 15 16 18 18 18
27 26 27 28 29 31 35 40 44 46 46 44 44 43 41 43 44 43 41 39 36 35 34 34 34 30 26 26 25 24 26 27 26 26 26 27 27 27 27 26 24 23 22 21 21 22 22 23 23 25 26 26 26 24 21 19 17 15 15 15 15 15 14 14 14 14 14 14 13 13 12 11 10 10 10 11 12 12 11 11 10 10 10 11 12 12 13 14 14 13 13 13 14 15 16 17 17
27 27 28 28 29 30 33 39 42 44 45 45 45 43 41 43 43 40 39 39 37 35 33 33 32 29 26 26 27 27 28 28 25 24 25 26 26 24 23 21 19 19 18 20 21 21 22 21 23 26 27 27 26 24 21 18 15 14 14 14 13 14 13 13 13 14 14 13 13 12 10 10 9 10 10 11 11 11 11 11 11 11 11 11 12 12 12 12 12 12 12 13 15 16 16 17 17
29 28 28 27 28 29 32 36 39 41 44 44 45 44 42 45 44 40 39 39 36 32 29 28 28 27 27 26 27 27 29 29 24 22 22 23 24 22 21 20 18 18 17 19 20 21 22 23 24 26 27 28 28 25 21 18 15 13 13 12 13 13 13 13 13 14 14 13 12 11 9 9 9 9 9 9 10 10 10 11 11 11 11 12 12 12 12 12 11 11 11 12 14 15 16 17 18
29 28 28 27 27 28 29 33 36 39 42 43 45 46 45 46 45 42 41 39 33 29 27 27 27 27 27 27 27 27 28 27 23 19 17 18 20 19 19 19 18 18 19 20 22 23 24 24 24 25 25 27 28 26 22 18 15 13 12 12 13 13 13 13 13 14 13 12 12 11 10 10 9 9 9 9 9 10 10 11 11 11 11 11 11 11 11 10 10 10 10 11 12 14 15 17 18
27 28 27 25 27 27 25 29 33 36 39 41 45 48 46 45 44 42 40 36 30 28 27 27 26 25 25 26 26 25 24 24 22 18 14 14 17 18 18 18 18 19 20 22 23 23 21 21 22 21 22 25 27 24 20 17 14 12 12 13 13 13 12 12 12 12 11 11 11 11 10 9 8 8 8 9 9 10 10 10 10 9 10 9 9 9 8 8 8 9 10 11 12 12 13 15 17
25 27 26 24 26 24 23 27 31 34 35 37 44 49 47 45 44 42 39 34 28 24 24 25 25 23 23 24 23 21 22 22 21 19 15 13 16 17 18 17 18 19 20 21 21 20 19 20 21 20 21 24 25 22 18 14 13 12 12 13 13 12 11 12 12 11 10 10 10 10 9 8 7 7 8 8 9 9 8 8 8 8 8 7 7 7 7 7 7 8 9 10 10 10 11 12 13
24 25 25 24 24 22 21 25 28 30 32 34 42 49 48 46 45 42 39 36 31 26 25 26 24 22 23 24 22 19 19 19 18 19 16 15 16 17 16 17 18 19 19 20 21 22 22 23 23 22 21 22 23 22 17 13 13 13 13 13 12 11 11 12 12 11 10 10 10 9 8 8 8 8 8 8 8 8 7 7 7 7 7 6 6 6 6 6 6 7 8 8 8 8 9 10 11
24 24 22 22 23 22 22 23 25 28 30 32 38 46 49 47 45 43 40 38 35 32 29 28 25 22 24 25 21 18 15 14 15 16 16 17 18 18 17 17 18 19 20 21 23 24 24 24 23 21 21 22 22 20 14 12 13 14 14 13 11 11 12 12 12 11 10 10 10 9 8 8 8 8 8 8 8 7 7 7 7 7 7 6 6 6 6 6 6 6 6 6 6 6 8 10 10
23 23 22 22 22 23 22 22 25 29 31 33 36 43 48 48 47 44 42 40 37 34 31 29 27 24 24 25 21 17 14 13 14 14 14 16 19 20 20 20 21 22 22 23 24 24 23 23 22 20 21 22 20 13 7 8 10 12 12 13 12 11 12 12 12 11 10 10 9 8 7 7 7 7 8 8 8 8 8 8 7 7 7 6 6 6 6 6 6 6 5 5 5 5 6 7 8
23 24 24 22 22 24 22 22 26 30 33 35 37 41 45 47 48 46 44 42 39 34 31 31 28 25 25 24 20 17 15 15 15 14 13 14 16 19 20 21 22 22 23 23 24 24 22 22 22 20 20 19 15 10 5 5 8 9 10 12 12 11 13 12 12 11 10 9 8 7 6 6 7 8 8 9 9 8 8 8 8 7 7 6 6 6 7 7 6 5 5 5 5 4 5 6 6
25 25 25 24 23 23 22 23 25 28 32 34 36 39 42 43 44 43 41 39 36 33 32 32 30 26 25 24 21 17 16 17 17 14 13 13 14 16 18 20 21 22 22 23 24 24 22 21 21 20 20 18 16 13 9 6 8 10 10 11 12 12 13 13 12 12 10 9 7 7 6 6 7 8 8 8 8 8 8 7 7 7 6 6 6 6 7 8 7 5 4 4 4 5 5 6 6
27 27 26 25 23 21 19 21 23 26 29 30 32 36 38 39 39 36 35 35 34 32 33 33 30 27 25 24 21 19 18 19 19 15 13 13 12 12 15 18 20 21 21 23 24 24 22 21 21 19 17 17 18 15 10 7 8 12 12 12 13 13 13 12 12 12 10 9 8 7 6 7 7 8 8 8 8 8 8 7 7 6 6 6 6 7 8 8 7 6 5 4 4 5 5 5 5
28 28 27 26 24 20 17 19 22 25 26 26 28 32 34 35 35 33 33 34 33 32 32 31 29 25 23 23 22 21 21 21 20 16 16 16 14 12 14 16 18 18 20 23 25 26 24 22 22 19 15 15 17 15 11 8 8 12 13 12 13 13 12 12 12 11 10 9 8 7 7 8 8 8 8 8 8 8 7 7 7 6 6 6 7 7 8 9 8 8 7 6 5 6 5 5 5
28 27 27 26 24 21 20 19 20 23 25 24 26 30 31 30 31 32 33 33 32 31 30 29 26 22 20 21 21 21 20 20 20 18 19 19 16 15 16 16 18 18 20 23 24 26 27 25 23 20 18 19 18 15 12 9 9 12 12 12 12 13 12 12 12 11 10 9 8 8 8 8 8 9 9 9 9 9 8 7 7 6 6 6 7 7 9 9 9 9 8 7 7 6 6 5 5
27 26 25 24 23 23 23 20 21 25 25 24 25 28 28 25 27 29 29 30 30 30 29 28 25 21 20 20 19 20 20 20 20 20 21 19 18 18 17 19 20 18 20 22 20 19 22 25 25 22 20 20 17 14 12 10 10 12 11 11 11 12 13 12 12 11 10 9 8 8 8 8 9 9 9 9 9 8 8 8 7 7 7 7 7 8 9 10 10 10 9 8 7 7 7 6 5
25 25 23 21 21 23 23 22 25 27 25 25 26 27 26 22 24 25 25 27 28 28 28 27 25 23 22 21 20 22 21 21 22 23 22 19 19 19 19 23 22 18 21 23 21 19 17 18 21 22 22 19 16 14 12 9 13 16 12 11 11 12 14 13 12 11 10 9 8 8 8 8 9 9 9 9 9 9 8 8 8 8 8 7 7 8 9 10 10 10 10 9 8 8 7 7 6
23 23 21 19 20 22 23 23 26 27 25 27 28 28 25 22 26 27 24 25 24 25 26 26 26 25 23 20 20 22 21 22 24 23 21 20 20 20 20 22 20 16 19 23 23 22 19 16 16 19 20 18 15 13 12 11 17 20 16 13 14 16 16 15 13 12 11 10 8 8 8 8 9 9 9 9 9 9 9 9 9 9 8 8 8 8 8 9 10 10 10 9 8 7 7 7 7
21 21 20 21 21 23 24 25 26 26 26 27 27 27 24 22 28 29 25 24 23 22 24 26 27 25 22 20 20 23 23 24 24 20 18 19 21 22 22 22 22 20 21 22 21 19 18 18 18 17 18 19 18 15 13 12 17 22 19 15 16 18 18 16 14 13 11 10 9 9 9 8 9 9 9 9 9 10 10 10 10 10 9 9 8 8 8 9 9 9 9 9 8 7 7 7 6
20 21 22 23 24 24 26 27 27 27 28 27 22 23 23 22 27 29 27 25 24 22 23 25 26 22 21 23 23 23 23 22 19 15 16 18 21 23 23 22 23 23 21 18 17 16 16 15 14 14 15 18 19 16 14 14 18 21 18 15 16 17 17 16 14 13 12 12 11 10 10 9 9 9 9 10 10 11 11 11 11 10 10 9 9 8 8 8 8 8 8 9 8 8 7 6 5
21 22 24 25 25 25 26 26 27 28 30 28 21 21 23 23 25 28 27 26 25 23 21 22 24 24 24 25 25 24 22 19 15 14 16 19 22 23 22 22 22 22 18 16 16 15 13 11 10 12 14 14 16 15 15 17 19 19 16 16 16 16 16 14 14 14 14 15 14 12 11 10 10 9 10 11 12 12 12 12 12 11 10 10 9 8 8 8 8 8 8 9 9 9 8 7 6
22 22 23 25 25 25 25 25 28 31 31 29 23 21 24 25 26 28 28 27 26 24 21 20 22 25 28 29 27 25 22 18 16 15 18 20 22 23 22 21 22 21 18 17 17 15 13 11 11 12 12 13 15 16 16 18 19 17 16 16 16 15 15 15 16 16 17 17 15 14 12 11 10 10 10 11 11 12 12 13 13 12 12 11 10 9 9 9 8 8 9 9 9 9 9 8 7
23 22 22 23 24 25 25 26 29 33 33 28 24 22 25 27 27 28 28 28 26 24 21 20 20 22 26 30 31 28 24 21 19 18 20 21 23 24 21 19 20 19 16 15 16 16 14 13 13 12 13 14 16 17 17 18 19 18 18 17 16 16 16 16 16 16 17 17 15 14 12 11 11 10 11 10 11 11 12 12 12 12 12 12 12 11 10 10 10 10 10 10 10 10 10 9 8
22 20 20 22 23 24 26 28 31 35 33 28 25 23 26 28 28 28 29 29 27 25 23 22 21 21 22 26 28 28 26 24 23 22 23 24 25 24 19 17 18 17 14 13 13 13 10 9 10 11 13 15 16 17 18 19 20 20 19 17 17 18 17 16 15 15 16 15 15 14 13 12 12 11 11 11 11 12 12 11 12 12 12 12 12 12 12 12 12 13 13 13 13 12 12 11 11
22 21 22 23 23 24 26 28 32 34 33 29 28 26 28 30 29 28 29 28 28 26 25 25 24 22 21 22 24 26 26 26 26 26 26 25 23 21 19 18 17 15 13 12 12 11 8 3 6 7 8 11 15 17 18 20 21 21 20 19 20 20 18 16 15 14 15 14 14 14 14 13 12 12 12 12 13 13 12 12 12 12 12 13 13 14 14 14 15 15 16 16 16 15 14 14 13
22 20 22 23 24 25 26 28 31 35 34 32 30 28 29 31 31 29 28 28 27 27 27 27 26 25 24 25 27 28 30 29 27 27 26 23 20 20 21 19 17 14 13 12 11 10 6 6 7 5 5 8 12 16 19 20 21 21 22 23 23 22 19 17 15 14 14 14 14 14 14 14 13 14 14 14 15 15 15 14 14 14 14 14 15 15 16 17 17 18 19 19 19 17 16 15 15
19 17 17 19 21 23 24 25 27 32 36 35 32 30 32 34 33 31 30 29 29 30 31 31 31 29 27 29 32 34 33 29 27 26 24 20 18 18 18 15 14 13 12 11 10 8 8 10 9 9 8 8 11 15 17 18 18 20 23 25 25 24 22 18 15 14 14 14 15 15 15 15 14 15 14 15 16 17 17 17 17 16 16 17 17 17 18 18 19 20 20 20 20 19 18 17 16
16 17 17 17 18 21 23 23 25 28 33 36 35 33 34 35 33 31 30 29 30 31 34 34 33 30 28 30 31 29 29 27 23 22 19 16 16 14 11 10 12 12 11 11 9 8 8 9 11 13 10 9 12 16 17 17 17 18 22 25 26 25 23 20 17 16 16 16 15 14 14 15 15 16 16 16 16 17 18 18 17 16 16 16 16 17 18 18 19 20 20 20 20 19 18 17 17
18 20 19 17 18 21 23 24 24 26 28 32 37 36 35 35 34 31 29 27 25 24 27 30 30 27 24 27 27 25 25 23 20 21 19 16 13 10 8 8 10 11 10 10 9 8 6 6 10 13 13 13 15 17 18 18 18 18 20 23 25 25 24 21 19 18 18 16 14 13 14 15 16 17 18 18 17 17 18 18 17 16 15 13 13 14 15 16 18 19 20 20 19 18 17 17 16
20 21 20 19 20 23 25 25 25 26 26 30 35 38 37 36 36 33 30 27 25 22 21 24 26 23 18 20 23 24 25 25 23 22 21 17 13 9 8 8 9 10 9 9 9 7 5 4 5 9 14 16 16 16 18 18 17 17 18 19 21 22 22 21 19 19 18 16 15 14 13 15 17 18 20 20 19 18 18 18 18 17 15 13 12 12 14 15 17 18 19 19 18 18 17 17 16
23 23 23 23 22 24 26 27 27 27 28 32 36 38 38 38 37 35 31 28 28 26 23 22 24 25 21 19 20 23 24 23 22 22 21 17 13 10 8 8 8 9 10 10 9 7 6 5 6 9 14 17 15 13 15 17 14 14 15 15 15 16 17 19 19 20 19 17 17 15 13 14 16 18 20 21 20 19 18 18 18 17 15 13 12 12 13 14 16 17 17 17 17 17 17 17 16
24 25 26 26 25 25 26 27 28 28 29 33 36 37 37 36 35 33 30 28 29 30 29 27 25 26 27 24 21 21 23 23 22 21 19 17 16 14 12 10 9 10 11 11 11 10 9 8 10 12 15 17 14 11 13 15 15 16 16 15 14 14 17 19 20 20 20 20 19 17 15 14 15 18 21 21 21 20 19 19 19 18 16 15 13 13 13 14 14 15 15 15 16 16 17 17 17
25 27 28 27 26 26 26 27 29 30 30 31 33 34 33 31 31 30 29 27 26 27 30 31 29 26 25 24 22 22 23 23 22 20 18 18 19 19 17 14 13 12 13 13 13 13 12 11 12 14 16 16 13 12 14 16 17 18 18 16 15 16 18 20 20 20 21 21 20 19 18 17 17 18 20 22 21 20 20 20 20 20 19 16 15 14 14 13 14 14 14 14 15 15 16 16 17
26 28 30 29 26 25 26 27 27 29 31 32 32 32 30 29 28 28 27 24 22 23 25 27 28 26 24 23 22 23 23 22 21 20 19 19 20 22 21 18 16 16 15 16 15 15 15 15 16 16 16 14 12 13 14 16 18 17 16 16 17 18 20 20 20 20 20 20 20 20 20 20 20 20 21 23 23 21 20 20 20 20 20 18 17 16 15 15 14 14 14 14 15 16 16 17 17
Wind_Direction
273 273 272 271 271 270 270 270 269 269 269 267 264 264 262 261 261 260 257 255 253 254 255 254 255 254 251 250 250 251 253 254 256 260 263 264 265 267 271 275 279 282 286 287 286 289 291 291 288 283 281 280 281 285 287 288 290 293 294 292 289 289 291 294 297 300 303 306 308 310 311 312 315 317 316 313 309 305 302 297 287 279 277 279 280 280 287 295 294 298 301 299 299 297 295 294 291
273 272 272 272 271 270 269 269 269 268 267 263 261 260 260 260 258 257 255 254 254 253 253 252 252 251 248 248 250 253 255 257 256 257 259 261 263 266 267 271 275 279 282 283 283 290 292 288 286 281 279 280 281 285 287 287 290 292 291 289 288 289 292 294 297 300 304 306 307 309 310 311 314 315 315 313 309 303 299 297 288 281 281 281 282 282 287 291 289 293 296 297 296 293 291 289 286
273 272 271 271 270 269 268 268 268 267 263 260 259 259 259 258 257 256 255 256 256 256 254 251 249 248 247 246 247 248 249 252 253 255 257 258 260 261 262 266 272 276 278 279 283 291 293 286 281 278 276 278 280 283 285 287 289 290 289 288 288 290 292 294 298 301 303 305 307 307 308 309 312 313 313 312 308 300 295 296 293 289 288 288 287 286 287 287 287 289 292 295 294 290 287 283 278
272 271 270 269 269 268 267 266 266 264 259 257 258 258 257 256 256 255 255 256 256 256 253 251 248 247 246 244 245 244 243 248 248 249 252 255 256 258 260 263 269 272 275 279 285 290 290 284 279 275 274 275 278 282 284 286 288 288 288 287 288 290 292 296 299 301 302 304 305 305 306 307 309 310 310 309 306 297 291 295 299 295 293 295 293 290 289 288 288 290 293 294 292 289 283 278 273
269 269 268 268 266 266 266 265 263 258 255 255 256 258 256 255 254 254 255 255 255 254 252 251 248 248 247 244 246 244 244 246 245 245 247 250 253 256 261 264 268 271 275 280 286 287 285 281 276 273 272 273 277 281 283 284 285 286 285 285 286 289 292 296 298 300 301 302 302 303 304 304 305 307 306 304 300 295 291 295 297 293 294 299 300 298 296 295 295 296 297 294 292 289 281 275 271
266 266 266 265 264 264 264 264 260 252 252 253 255 256 255 253 252 252 254 253 253 253 253 251 246 246 245 244 246 245 245 244 244 246 247 249 253 257 262 266 269 272 276 281 283 282 279 276 274 272 270 272 276 278 280 281 282 281 281 282 284 288 292 295 296 298 298 298 299 300 301 301 301 302 300 297 294 295 295 296 296 296 297 300 301 307 310 306 303 300 298 295 291 288 280 275 271
266 264 263 263 263 263 262 261 254 247 248 250 251 253 251 249 246 248 250 250 251 251 252 251 246 242 240 242 242 242 245 244 243 244 246 249 254 259 263 267 271 274 276 279 280 276 272 271 271 270 269 272 274 275 277 278 278 278 279 280 284 288 292 294 294 293 293 294 296 297 297 297 296 295 292 290 290 293 294 293 297 301 299 296 295 304 313 312 308 302 298 296 290 284 279 274 270
267 265 263 262 261 260 260 257 249 243 244 245 247 247 245 242 240 242 245 247 248 250 251 250 248 243 241 241 239 241 245 245 244 243 245 250 255 260 264 268 271 272 274 275 273 267 265 266 267 267 268 270 272 273 275 276 276 276 277 281 286 290 292 292 290 288 289 291 293 294 293 292 289 287 285 283 283 284 285 287 291 294 295 295 295 299 309 314 311 305 299 297 291 284 278 273 270
269 266 264 262 260 258 256 253 246 240 239 238 241 242 239 237 236 238 241 243 246 248 249 251 252 248 246 245 242 243 245 245 246 246 247 252 257 261 263 266 270 272 270 268 265 263 263 264 264 264 266 268 270 272 273 273 274 276 279 285 288 289 289 288 286 285 287 288 288 288 286 284 281 279 277 276 275 274 278 282 285 286 288 295 300 301 308 312 309 304 298 294 290 284 278 273 267
269 267 265 263 260 257 251 246 243 239 236 234 236 236 236 235 233 233 236 241 245 246 246 250 252 250 248 248 246 246 247 249 250 250 251 253 256 259 260 263 270 272 267 264 263 262 262 261 261 262 264 267 268 269 270 271 274 278 283 285 286 285 284 284 283 283 283 282 281 280 279 278 276 274 272 271 269 269 274 278 279 281 284 293 301 301 302 303 302 299 293 287 284 279 276 272 264
267 266 265 263 259 254 245 241 240 239 236 232 232 233 233 233 231 232 236 241 245 246 245 247 249 249 248 247 247 249 250 253 255 257 258 257 257 258 261 266 271 267 261 260 260 259 259 258 259 261 263 265 266 268 270 274 278 281 282 281 280 278 278 279 280 280 277 276 275 276 277 276 274 272 271 269 268 269 273 273 273 275 278 282 291 296 293 289 287 287 286 281 276 273 272 270 262
263 263 262 260 257 250 242 239 239 238 235 230 230 230 230 229 228 230 235 239 242 243 243 245 245 246 247 248 250 252 255 258 261 264 265 264 265 267 271 272 267 258 253 253 254 254 255 256 258 261 263 265 268 271 275 278 281 281 279 277 275 273 273 275 276 275 273 273 275 277 276 273 270 268 268 266 266 270 269 268 270 275 280 279 282 288 286 283 277 273 276 272 263 265 267 266 262
260 259 258 257 254 248 240 237 236 236 231 228 229 227 226 227 225 229 235 238 239 239 241 242 243 245 247 250 253 256 260 264 266 269 271 271 272 274 274 270 260 251 248 248 249 251 252 255 258 262 266 269 272 275 278 279 280 279 277 275 272 270 271 272 273 274 274 274 277 276 273 269 266 264 263 260 263 270 267 265 268 275 282 283 280 280 282 281 275 271 271 263 253 257 262 264 262
257 257 256 254 252 245 237 233 231 231 225 224 228 226 224 224 224 229 233 236 237 237 240 242 245 247 248 250 253 256 261 266 269 272 272 273 273 272 269 263 255 248 246 246 248 249 251 255 259 265 269 271 274 276 277 277 277 277 275 274 271 270 271 272 274 275 274 275 276 274 271 271 266 261 258 255 258 265 267 264 264 269 274 277 274 274 280 279 278 277 270 255 248 253 259 262 259
257 256 255 251 247 241 234 230 228 227 220 218 224 225 223 221 220 226 230 231 234 235 238 243 247 249 251 252 254 257 262 267 271 273 273 272 268 266 265 259 251 245 244 246 246 247 251 256 261 266 269 271 273 275 275 276 276 275 273 271 270 271 273 274 274 273 273 275 275 273 274 275 269 261 257 255 254 255 260 260 261 263 265 266 262 270 282 281 282 280 263 249 247 251 257 258 255
256 255 253 248 241 236 230 228 228 224 218 215 220 223 224 223 219 221 227 230 233 236 239 243 247 250 252 253 255 258 263 269 272 273 274 271 264 259 258 253 248 243 242 242 243 247 251 256 261 264 267 270 272 274 275 276 275 273 270 270 271 274 274 273 273 273 273 272 272 273 276 277 272 264 258 257 257 254 254 256 258 260 262 258 253 269 280 279 281 275 260 253 249 252 256 257 255
256 254 251 245 235 229 224 226 225 220 218 217 217 219 221 225 223 219 223 229 231 236 241 244 248 250 252 254 257 260 263 268 271 271 273 271 264 256 248 244 242 240 239 240 243 247 251 255 258 261 265 269 272 274 275 274 273 272 271 273 275 276 273 269 269 269 269 269 270 274 276 277 274 268 264 261 261 259 256 255 256 259 262 256 250 260 265 272 278 269 260 259 255 255 254 257 257
255 253 248 241 229 219 212 216 219 215 216 216 216 217 218 221 224 222 222 227 230 235 240 244 248 251 253 253 255 259 261 263 267 269 269 265 261 253 242 237 238 238 238 240 243 246 251 254 257 260 264 268 271 273 274 274 272 272 272 273 274 273 271 267 267 267 268 271 273 275 275 275 275 273 270 265 261 261 260 258 257 258 258 257 254 250 251 268 273 262 256 257 258 258 255 257 258
254 251 246 237 221 211 201 205 211 210 210 211 212 215 218 220 222 223 223 227 233 236 238 243 247 250 254 253 253 257 258 261 264 264 262 260 259 255 243 234 233 236 237 239 242 246 250 254 256 260 265 268 271 272 273 273 272 271 269 270 270 270 270 268 269 270 271 272 273 273 274 275 276 274 271 265 261 262 264 263 263 261 255 258 257 246 246 256 257 254 253 252 257 261 260 260 259
251 249 245 230 213 209 198 199 206 205 204 207 210 213 217 221 221 222 224 226 233 238 239 242 245 249 254 256 256 256 258 260 261 259 259 262 264 260 243 228 225 230 234 238 240 244 248 251 254 260 266 269 271 271 271 271 271 270 270 270 270 270 270 270 271 272 273 273 273 275 276 277 275 273 269 265 263 265 267 267 266 259 252 255 251 247 249 246 246 250 251 251 255 260 263 264 263
248 247 244 223 211 210 197 197 205 204 204 207 209 212 216 221 223 222 224 227 234 240 242 244 246 249 253 260 260 255 256 258 260 264 266 266 261 250 231 220 223 230 233 235 237 242 247 250 255 261 265 268 270 271 271 273 274 273 273 272 272 271 271 271 272 273 273 275 276 278 278 277 275 271 268 267 268 270 270 269 264 251 246 250 249 252 250 242 243 248 250 253 256 259 263 265 265
246 245 239 221 213 210 200 201 205 204 206 208 210 213 217 220 223 224 225 229 235 241 244 246 248 249 254 262 263 258 255 255 263 270 267 265 255 235 217 213 221 227 228 231 236 243 248 252 257 262 266 268 270 272 274 277 279 277 275 272 271 271 271 271 272 273 274 276 277 278 277 276 274 271 269 270 269 269 268 269 264 250 248 253 254 253 249 246 249 251 252 254 256 259 260 263 264
244 242 235 222 214 208 206 207 207 207 207 209 212 215 219 221 224 228 228 229 234 241 245 247 250 252 252 257 262 259 253 253 261 267 259 260 249 223 212 213 220 225 226 230 239 246 251 256 261 265 267 269 271 273 276 279 279 277 275 272 271 270 270 271 273 275 276 276 275 274 274 272 271 271 269 266 260 260 267 273 269 258 255 256 254 252 253 255 256 257 257 257 259 262 261 261 260
242 239 234 225 217 208 206 209 209 210 208 210 215 217 220 223 225 229 229 229 232 239 244 246 251 253 248 250 258 252 249 258 267 269 260 255 249 231 225 224 225 225 224 228 238 245 253 259 264 267 269 271 273 274 275 277 278 276 274 272 271 270 271 273 275 276 275 273 271 269 269 268 266 264 259 252 250 260 273 275 270 261 256 255 256 258 259 258 258 260 260 260 263 265 264 262 258
241 237 233 225 219 208 205 210 210 211 210 210 215 217 220 223 226 229 230 232 233 237 243 247 252 253 249 249 251 246 253 267 268 266 261 255 256 254 254 252 238 227 227 231 240 249 258 263 267 269 271 273 273 274 276 278 279 276 274 273 273 273 274 275 274 272 270 267 265 263 261 257 251 247 245 247 255 266 272 270 266 261 259 261 262 262 262 260 260 262 261 261 263 262 263 261 257
242 237 233 226 222 213 207 211 212 212 212 212 215 217 219 222 226 229 233 236 237 238 242 247 251 253 253 251 248 249 261 269 262 261 262 259 261 264 269 267 246 231 234 241 249 258 263 267 270 272 273 274 274 274 276 279 280 278 276 276 275 275 274 271 267 264 262 260 257 254 248 242 240 244 251 255 260 264 264 263 263 264 266 267 266 265 264 264 265 264 264 262 259 259 261 259 255
243 238 235 231 226 220 212 213 215 215 215 216 218 218 219 223 226 228 233 237 239 241 246 254 258 258 258 254 249 252 263 268 262 262 264 261 262 262 267 268 249 236 241 249 257 263 268 273 274 273 272 273 274 275 277 281 285 284 280 278 274 270 267 262 257 255 254 251 246 241 236 236 243 251 256 259 261 260 259 260 263 267 270 271 270 269 268 268 270 269 267 263 259 260 260 259 254
244 240 236 235 231 226 218 215 217 219 219 220 221 221 222 226 227 228 233 239 242 248 257 264 264 263 259 251 250 256 263 268 264 264 265 259 257 259 261 261 254 252 260 266 269 270 273 277 278 273 269 271 274 276 280 286 290 288 283 277 270 265 260 254 251 249 247 242 236 230 227 233 240 247 252 257 258 255 255 257 262 268 272 274 272 271 271 273 273 270 267 264 261 261 261 259 256
246 244 239 237 234 231 226 220 220 222 223 224 225 225 225 229 232 232 236 242 246 254 263 266 264 264 261 251 252 259 263 265 264 264 265 254 250 254 256 254 255 261 267 270 272 274 275 278 278 273 268 271 275 277 281 287 291 289 282 273 265 260 256 250 247 244 239 233 227 224 225 229 234 243 251 254 254 254 256 258 262 268 270 270 271 270 272 275 276 275 271 266 262 261 262 261 258
247 249 245 241 238 234 232 227 225 226 227 229 231 230 229 231 235 236 239 244 250 257 264 266 265 265 262 254 252 256 259 261 262 262 262 253 247 246 246 247 251 256 260 265 269 270 270 275 279 275 271 274 276 277 281 288 290 284 273 265 259 255 252 245 238 231 223 220 221 223 227 231 236 243 248 249 250 253 254 257 261 266 268 267 268 269 272 277 282 282 276 270 265 262 262 262 260
245 248 247 244 242 237 236 232 229 230 231 232 234 235 234 234 236 237 239 243 248 256 262 263 262 263 261 254 250 250 254 258 258 259 260 259 253 249 247 249 250 251 257 262 263 261 264 275 282 281 279 279 277 276 279 285 283 273 263 257 253 250 245 234 224 219 217 219 221 224 227 230 237 241 242 242 243 247 249 253 257 261 267 268 267 269 274 279 284 282 277 275 271 266 264 262 259
246 247 248 246 242 237 236 235 231 232 235 236 236 237 238 238 239 239 240 243 245 252 261 262 259 259 258 252 249 250 252 255 256 258 262 262 259 256 254 251 250 252 255 258 258 260 268 277 281 283 285 283 281 278 276 277 271 261 256 251 246 240 233 225 220 222 225 225 223 223 225 227 233 238 241 243 242 245 246 246 250 254 259 262 264 271 278 282 288 287 284 281 277 271 267 262 257
248 249 250 249 245 237 232 233 233 232 233 236 237 238 239 240 242 244 245 246 249 256 262 262 257 254 253 250 248 248 248 250 255 258 262 264 261 255 252 250 251 254 256 260 264 268 274 279 279 283 285 283 283 280 275 277 266 250 248 250 242 232 227 222 223 228 226 222 220 221 225 225 227 234 241 247 247 246 246 245 246 249 252 255 258 265 274 281 288 291 289 286 282 279 272 262 255
250 251 248 247 244 238 229 226 229 230 229 231 234 235 236 238 241 244 247 250 254 258 259 258 256 251 249 248 245 241 237 238 246 250 254 260 261 258 254 253 254 256 261 265 268 271 275 279 279 282 287 281 274 268 264 284 270 242 238 245 239 229 227 225 226 228 222 217 218 219 223 225 229 236 242 245 245 241 242 243 243 247 251 253 253 255 263 274 283 288 287 280 276 275 268 255 247
248 247 244 240 238 236 229 221 224 228 227 227 230 233 234 236 239 241 245 250 254 256 254 251 251 247 245 246 243 234 229 229 234 239 245 256 263 263 259 256 255 256 262 266 268 271 273 278 280 282 288 277 258 251 255 284 276 244 228 235 233 226 227 227 225 222 216 214 218 219 225 234 240 243 244 244 241 236 236 239 241 245 248 253 256 256 261 269 277 281 278 271 265 257 254 251 249
244 244 242 237 235 235 232 227 228 231 231 230 232 235 237 237 239 241 244 248 249 247 247 246 245 243 242 243 239 231 227 230 233 237 246 253 259 263 260 257 255 256 262 266 268 271 273 278 281 284 286 267 250 260 266 263 258 234 217 223 227 224 224 224 217 212 212 213 215 221 231 239 243 245 245 244 242 239 237 240 242 246 250 255 258 257 260 265 267 267 263 259 249 241 246 257 263
242 243 243 239 236 234 235 236 237 238 238 237 237 239 239 240 241 240 241 242 241 239 241 243 242 241 242 243 238 230 229 233 236 239 247 251 257 266 262 255 254 257 263 268 270 273 275 277 278 284 285 263 257 270 266 251 241 222 210 215 221 221 221 218 212 207 208 209 210 219 230 235 239 242 243 242 241 241 241 243 245 247 250 255 256 254 254 256 257 254 248 241 237 238 243 253 262
241 244 244 242 239 236 236 238 239 240 241 241 242 242 240 240 240 237 235 236 237 238 239 241 241 241 243 242 237 233 237 241 242 246 249 247 254 274 274 260 257 264 270 271 274 276 275 273 272 276 274 262 270 277 264 254 239 220 212 212 215 219 218 213 208 205 204 206 209 215 224 232 237 239 241 241 241 240 240 240 242 244 246 251 253 252 251 252 253 248 240 235 232 234 237 241 247
242 245 247 245 243 241 238 239 239 241 244 240 241 246 242 239 238 234 232 234 236 236 236 236 238 239 243 241 239 242 249 253 250 247 248 252 267 289 288 266 262 272 274 273 276 272 266 265 268 269 257 254 271 274 259 251 230 215 210 208 215 223 220 211 204 201 204 207 209 212 220 230 235 238 239 239 238 237 237 238 242 244 245 249 253 255 255 255 255 250 242 236 230 229 232 236 238
242 245 247 246 245 244 240 238 236 237 243 243 243 248 247 241 236 231 228 228 230 232 230 231 231 231 236 238 239 245 251 254 248 245 253 266 282 292 287 268 264 269 273 280 287 278 266 260 259 256 246 247 261 259 248 240 215 204 203 202 211 226 224 215 206 199 199 203 207 212 220 231 235 236 235 235 236 237 241 245 247 247 245 246 248 250 252 254 255 253 247 241 235 231 231 234 233
241 243 245 245 243 244 241 235 233 234 239 244 245 248 249 237 220 214 216 220 224 227 226 226 225 224 230 233 236 241 243 244 245 249 259 268 277 284 286 276 269 264 276 295 303 297 287 272 257 248 243 246 248 239 235 228 204 198 203 204 207 222 222 214 207 199 194 197 206 216 224 232 234 234 233 234 239 243 247 250 250 248 246 245 243 242 245 249 252 254 252 246 240 237 234 232 231
239 240 242 241 238 240 239 235 234 234 233 239 244 246 246 227 203 197 206 214 219 224 225 224 223 225 228 230 238 245 243 243 247 253 260 267 277 290 294 286 279 277 290 303 306 300 296 292 276 252 241 238 231 228 233 223 203 205 214 212 207 216 218 212 207 201 194 195 208 223 230 235 235 235 236 240 245 249 250 249 248 246 242 242 242 240 241 244 248 252 255 254 249 244 239 235 233
239 238 236 234 233 235 237 234 232 228 222 229 240 243 237 213 197 199 207 212 214 221 225 224 224 226 225 225 238 248 246 244 248 254 263 274 286 295 298 297 299 302 303 301 302 304 297 293 284 257 238 233 231 233 235 219 204 211 222 220 212 213 214 211 207 200 194 196 209 224 232 237 240 241 244 248 251 252 252 250 246 242 235 231 231 232 234 238 244 250 256 262 261 255 246 240 236
238 235 232 230 230 233 236 234 228 221 216 219 229 237 227 205 200 206 211 215 216 219 224 228 229 229 227 228 236 244 246 244 247 257 271 284 293 297 299 302 303 303 305 300 296 304 304 296 278 255 246 242 234 228 221 208 204 212 219 216 211 212 210 207 203 198 196 199 207 217 226 235 240 245 249 251 253 254 254 251 246 239 230 224 223 225 229 233 238 245 253 259 261 259 253 245 240
232 230 230 230 230 232 236 235 226 217 215 215 218 227 221 207 205 209 214 219 218 218 225 233 235 234 234 236 238 242 245 247 256 272 283 290 293 294 297 302 303 301 302 297 292 297 301 296 280 269 264 248 226 212 203 198 203 209 207 204 204 206 207 204 203 201 200 203 207 212 221 231 237 242 245 250 254 256 255 252 244 236 229 225 224 225 229 232 234 238 243 250 254 256 255 251 247
225 224 227 229 229 232 232 231 223 215 216 213 210 220 219 211 208 207 213 219 220 223 230 237 238 237 237 239 244 246 247 253 265 278 285 287 288 291 297 301 303 304 302 295 294 297 290 278 280 285 276 249 223 211 202 197 203 204 198 198 201 204 207 208 209 209 207 208 210 214 220 228 234 237 242 248 253 254 252 248 241 233 230 230 230 232 237 238 239 241 242 246 250 253 255 255 252
227 221 223 226 227 228 226 224 219 216 218 212 203 213 219 215 212 209 213 219 222 228 234 240 242 240 240 241 245 249 252 259 266 273 278 281 283 287 294 300 303 308 311 306 304 302 286 267 266 272 267 250 229 217 206 199 201 195 189 194 198 202 205 206 209 211 213 215 216 218 221 225 229 233 239 245 248 248 244 239 235 231 231 233 234 236 242 246 249 252 253 253 255 257 258 257 254
233 224 219 222 224 224 223 221 217 217 219 211 200 210 220 217 214 212 215 220 225 229 233 238 242 244 244 244 245 249 257 263 265 268 272 274 278 281 287 298 304 309 311 308 310 311 298 267 251 247 247 238 224 215 208 203 201 191 186 190 194 194 193 195 203 209 214 218 219 220 221 222 226 230 236 240 240 239 236 232 232 231 232 236 238 241 245 250 254 257 259 259 257 257 257 256 253
230 222 217 220 222 222 222 221 218 217 219 213 206 213 222 220 216 214 217 223 228 230 231 233 236 239 241 244 247 251 256 260 260 260 261 264 271 277 285 294 298 302 306 302 304 312 311 246 200 202 211 214 212 211 210 208 205 193 185 187 190 190 189 192 200 206 208 210 211 215 218 221 227 232 236 236 235 235 235 236 238 238 237 238 241 246 250 256 260 262 263 262 259 256 253 252 251
221 219 220 225 225 220 219 221 219 218 220 217 212 217 225 224 220 217 217 222 227 231 231 231 235 239 241 244 247 248 249 251 248 245 247 253 263 277 286 289 290 295 302 301 299 298 275 203 187 206 214 205 207 211 211 209 205 195 188 188 192 193 195 197 202 207 208 204 204 210 215 220 228 234 235 232 232 234 237 240 244 245 245 245 245 247 251 255 259 261 262 263 262 259 254 250 250
219 222 227 233 231 223 220 220 220 219 222 221 217 221 228 227 225 222 219 222 229 233 237 240 243 245 247 248 249 249 242 231 223 226 236 248 262 279 287 282 282 290 294 296 292 278 246 220 227 257 248 212 202 202 202 200 197 195 192 193 195 198 200 203 207 213 217 213 209 210 214 219 226 233 234 231 231 234 237 241 244 247 250 253 254 253 254 255 256 259 262 264 263 260 256 253 253
219 219 223 230 231 226 222 220 219 220 224 225 222 224 230 231 231 230 227 228 232 237 241 245 247 248 249 247 248 244 225 209 211 227 245 263 271 279 280 271 279 286 287 286 280 269 253 241 255 262 240 203 194 195 195 193 190 192 194 196 199 201 202 207 212 218 224 226 223 219 218 220 224 230 233 232 231 234 239 242 245 249 253 256 259 259 258 257 257 259 261 263 263 260 258 257 257
218 220 219 221 224 223 221 220 220 221 225 227 225 227 233 237 237 237 236 231 229 235 241 242 244 246 241 233 233 230 222 228 246 256 265 278 277 270 267 270 279 283 284 280 270 265 261 267 273 254 221 194 193 202 206 202 195 193 195 199 201 202 205 211 218 223 228 234 238 235 230 226 226 229 230 230 230 233 238 243 246 249 252 256 260 259 258 256 256 257 258 260 261 259 257 256 255
213 217 218 219 220 221 220 220 222 223 225 229 228 229 234 240 243 244 241 232 226 231 238 239 241 242 231 219 223 229 236 248 260 265 269 272 268 263 266 274 280 280 279 270 260 257 252 268 271 231 204 194 197 209 210 202 200 204 206 208 209 209 213 219 222 227 233 240 245 242 237 234 232 230 230 230 230 232 237 242 246 248 251 254 257 256 254 252 251 253 254 255 254 252 250 249 248
208 209 214 218 219 221 223 223 224 225 227 230 232 233 236 241 246 247 245 240 235 234 238 243 245 244 240 235 232 234 241 251 261 268 270 261 254 258 263 271 278 274 268 261 256 251 242 241 238 219 206 197 198 209 206 201 214 227 225 225 225 224 227 227 226 229 233 239 243 239 234 237 237 234 233 232 231 233 237 241 246 249 251 252 255 257 254 250 249 249 249 249 249 247 245 243 243
210 207 212 217 217 219 222 223 226 228 229 232 233 235 238 241 245 247 249 249 245 240 239 242 245 245 245 246 243 242 248 255 261 265 262 252 250 253 256 262 264 260 258 255 250 245 241 235 227 220 209 199 199 211 209 212 228 235 231 230 231 235 236 233 230 233 236 240 242 238 237 244 246 241 237 235 234 235 238 243 247 250 252 252 254 257 256 253 251 250 249 248 247 246 244 242 241
213 210 213 217 218 221 224 224 226 228 229 232 234 236 238 240 242 246 250 252 247 241 240 240 242 240 237 238 241 244 249 252 256 260 260 255 251 250 253 254 252 251 248 244 244 244 243 234 220 211 205 200 205 216 219 226 233 234 234 234 235 239 238 233 232 234 238 243 245 242 244 253 258 255 247 240 237 238 239 241 245 248 250 250 250 252 254 254 253 252 252 251 249 248 246 245 244
216 215 216 219 220 223 226 227 229 229 230 231 233 237 240 240 242 244 248 248 242 239 242 243 242 235 228 229 235 239 243 247 251 257 259 258 255 252 252 249 245 244 241 236 236 236 235 231 222 214 210 212 224 233 235 239 242 245 249 251 252 252 246 238 237 239 244 251 253 249 248 254 260 262 255 245 239 238 238 239 242 245 248 248 248 247 248 250 251 251 251 251 251 251 250 251 251